This is the latest recevied weather packets stored in our database for station/object SQ9MHX-13. If no packets are shown the sender has not sent any weather packets the latest 10 day(s).
| Time | Temp. | Humidity | Pressure | Rain* | Wind** | Luminosity | Snow |
|---|---|---|---|---|---|---|---|
| 1777818783 | 25° C | 23% | 948.6 hPa | - | 0 m/s | - | - |
| 1777818484 | 26.11° C | 23% | 948.8 hPa | - | 0 m/s | - | - |
| 1777817885 | 25° C | 23% | 949.5 hPa | - | 0 m/s | - | - |
| 1777817586 | 25° C | 22% | 949.7 hPa | - | 0 m/s | - | - |
| 1777817286 | 25° C | 23% | 949.5 hPa | - | 0 m/s | - | - |
| 1777816987 | 25° C | 25% | 949.3 hPa | - | 0 m/s | - | - |
| 1777816688 | 26.11° C | 21% | 949.1 hPa | - | 0 m/s | - | - |
| 1777816388 | 26.11° C | 24% | 948.7 hPa | - | 0 m/s | - | - |
| 1777815789 | 25° C | 21% | 949.6 hPa | - | 0 m/s | - | - |
| 1777815490 | 25° C | 25% | 949.5 hPa | - | 0 m/s | - | - |
| 1777813694 | 25° C | 25% | 949.7 hPa | - | 0 m/s | - | - |
| 1777813096 | 25° C | 25% | 949.9 hPa | - | 0 m/s | - | - |
| 1777812796 | 25° C | 26% | 950.1 hPa | - | 0 m/s | - | - |
| 1777812496 | 25° C | 24% | 950.3 hPa | - | 0 m/s | - | - |
| 1777812197 | 23.89° C | 27% | 950.6 hPa | - | 0 m/s | - | - |
| 1777811898 | 23.89° C | 24% | 950.9 hPa | - | 0 m/s | - | - |
| 1777811599 | 23.89° C | 28% | 949.9 hPa | - | 0 m/s | - | - |
| 1777811299 | 25° C | 23% | 948.8 hPa | - | 0 m/s | - | - |
| 1777811000 | 26.11° C | 26% | 949.7 hPa | - | 0 m/s | - | - |
| 1777810402 | - | - | - | - | - | - | - |
| 1777810401 | 26.11° C | 25% | 950.3 hPa | - | 0 m/s | - | - |
| 1777810102 | 25° C | 25% | 950.3 hPa | - | 0 m/s | - | - |
| 1777809804 | 26.11° C | 26% | 950.7 hPa | - | 0 m/s | - | - |
| 1777809802 | 26.11° C | 26% | 950.7 hPa | - | 0 m/s | - | - |
| 1777809228 | 23.89° C | 27% | 951.6 hPa | - | 0 m/s | - | - |
* Rain since midnight (hover to see other rain measurements)
** Current wind speed in m/s (hover to see current wind gust speed)